Miscellaneous Local Product
Issued by NWS Hastings, NE

Home | Current Version | Previous Version | Graphics & Text | Print | Product List | Glossary On
Versions: 1 2 3 4 5 6 7 8 9 10 11 12 13 14 15 16 17 18 19 20 21 22 23 24 25 26 27 28 29 30 31 32 33 34 35 36 37 38 39 40 41 42 43 44 45 46 47 48 49 50
933
AXUS43 KGID 231102
MISGRI

GID CWA HOURLY WEATHER ROUNDUP
NATIONAL WEATHER SERVICE HASTINGS NE
600 AM CDT MON MAY 23 2016

NOTE: "FAIR" INDICATES FEW OR NO CLOUDS BELOW 12,000 FEET WITH NO
SIGNIFICANT WEATHER AND/OR OBSTRUCTIONS TO VISIBILITY.

...SOUTH CENTRAL NEBRASKA...

CITY           SKY/WX    TMP DP  RH WIND       PRES   REMARKS
GRAND ISLAND   CLOUDY    59  55  87 NW15      29.80F
HASTINGS       LGT RAIN  59  54  83 N10       29.81S
KEARNEY        CLOUDY    55  52  88 N3        29.81F
ORD            LGT RAIN  57  52  83 NE6       29.78F
YORK           CLOUDY    68  64  88 S13       29.79R
AURORA         CLOUDY    62  60  93 N5        29.80S
LEXINGTON      MOCLDY    52  49  89 E5        29.82R
HOLDREGE       CLOUDY    56  52  85 N8        29.81F
HEBRON         CLOUDY    67  64  87 CALM      29.80F

...NEBRASKA PANHANDLE...

CITY           SKY/WX    TMP DP  RH WIND       PRES   REMARKS
CHADRON        CLEAR     38  33  82 SW9       29.82S WCI  31
ALLIANCE       CLOUDY    46  39  76 W5        29.84F
SCOTTSBLUFF    CLOUDY    47  38  71 W7        29.88S
SIDNEY         CLOUDY    51  36  56 W10       29.91R

...WESTERN AND NORTH CENTRAL NEBRASKA...

CITY           SKY/WX    TMP DP  RH WIND       PRES   REMARKS
VALENTINE      MOCLDY    51  47  86 S12       29.78S
AINSWORTH      CLOUDY    54  51  89 S6        29.80S
ONEILL         LGT RAIN  57  55  93 SE7       29.78F
BROKEN BOW     CLOUDY    55  50  83 E3        29.76F
IMPERIAL       CLOUDY    54  51  90 W5        29.86R
NORTH PLATTE   CLOUDY    50  49  96 NW6       29.83F
MCCOOK         CLOUDY    54  51  90 CALM      29.83R

...EASTERN NEBRASKA...

CITY           SKY/WX    TMP DP  RH WIND       PRES   REMARKS
NORFOLK        TSTM      60  59  96 NE10      29.78R
SO SIOUX CITY  TSTM      62  60  93 E9        29.80F
TEKAMAH        CLOUDY    69  61  75 S17       29.78F
COLUMBUS       CLOUDY    68  59  73 S10G18    29.78R
ALBION         CLOUDY    59  57  93 NW7       29.78F
OMAHA EPPLEY   CLOUDY    69  60  73 S14       29.81R
OFFUTT AFB     CLOUDY    67  61  80 SE9       29.81R
MILLARD        CLOUDY    69  62  78 SE7       29.81S
LINCOLN        MOCLDY    69  62  78 S12       29.79F
NEBRASKA CITY  PTCLDY    65  60  83 S10       29.83R
BEATRICE       CLOUDY    67  63  84 S8        29.83R
FALLS CITY     CLOUDY    65  59  81 SE13      29.82S

...NORTHERN KANSAS...

CITY           SKY/WX    TMP DP  RH WIND       PRES   REMARKS
GOODLAND       CLOUDY    55  47  74 NE5       29.86R
HILL CITY      HVY RAIN  57  53  86 N16       29.83S
NORTON         LGT RAIN  55  48  76 E5        29.85S
PHILLIPSBURG   CLOUDY    61  54  77 NW8       29.83R
SMITH CENTER   TSTM      61  57  88 N10       29.80S
BELOIT         CLEAR     66  64  94 SE7       29.78F
HAYS           CLOUDY    64  57  77 N6        29.81R
RUSSELL        MOCLDY    64  63  96 N7        29.80S
CONCORDIA      MOCLDY    66  63  90 S9        29.80R
SALINA         CLOUDY    69  65  86 S12       29.78R
TOPEKA         PTCLDY    66  58  75 SE10      29.83F



USA.gov is the U.S. government's official web portal to all federal, state and local government web resources and services.